SHT19Q EGPD-EGLL

Flight info

Callsign SHT19Q
Flight time 1h 6m
Altitude 36000
Route EPCAN DCT NEXUS DCT RIBEL DCT NUGRA NUGRA2H
Aircraft A320/M-VGDW/C

Departure

Time 2026-05-06 20:52
Airport Aberdeen International Airport (EGPD)

Arrival

Time 2026-05-06 21:59
Airport London Heathrow Airport (EGLL)
Time Latitude Longitude Altitude Speed Heading
2026-05-06 20:41 57.20099 -2.20278 222 ft 0 kts 248°
2026-05-06 20:46 57.20100 -2.20270 221 ft 2 kts 246°
2026-05-06 20:46 57.20106 -2.20246 220 ft 2 kts 248°
2026-05-06 20:46 57.20112 -2.20220 219 ft 2 kts 248°
2026-05-06 20:46 57.20118 -2.20193 218 ft 2 kts 247°
2026-05-06 20:47 57.20118 -2.20168 217 ft 2 kts 304°
2026-05-06 20:47 57.20111 -2.20156 217 ft 0 kts 335°
2026-05-06 20:47 57.20104 -2.20151 217 ft 0 kts 339°
2026-05-06 20:49 57.20105 -2.20152 217 ft 1 kts 339°
2026-05-06 20:49 57.20135 -2.20174 217 ft 8 kts 339°
2026-05-06 20:49 57.20203 -2.20224 218 ft 13 kts 338°
2026-05-06 20:49 57.20291 -2.20290 218 ft 14 kts 338°
2026-05-06 20:50 57.20385 -2.20361 219 ft 15 kts 338°
2026-05-06 20:50 57.20479 -2.20355 217 ft 14 kts 32°
2026-05-06 20:50 57.20565 -2.20381 218 ft 12 kts 338°
2026-05-06 20:50 57.20648 -2.20443 220 ft 13 kts 337°
2026-05-06 20:51 57.20751 -2.20520 222 ft 17 kts 338°
2026-05-06 20:51 57.20865 -2.20604 225 ft 17 kts 338°
2026-05-06 20:51 57.20979 -2.20653 225 ft 17 kts 36°
2026-05-06 20:51 57.21038 -2.20439 213 ft 12 kts 78°
2026-05-06 20:52 57.20998 -2.20372 211 ft 9 kts 160°
2026-05-06 20:52 57.20794 -2.20223 206 ft 71 kts 158°
2026-05-06 20:52 57.20073 -2.19687 266 ft 143 kts 159°
2026-05-06 20:52 57.19125 -2.18941 967 ft 158 kts 156°
2026-05-06 20:53 57.18111 -2.18046 1703 ft 173 kts 156°
2026-05-06 20:53 57.16907 -2.17422 2388 ft 190 kts 176°
2026-05-06 20:53 57.15538 -2.17125 2966 ft 215 kts 173°
2026-05-06 20:53 57.13963 -2.16754 3597 ft 239 kts 174°
2026-05-06 20:54 57.12260 -2.16378 4396 ft 254 kts 175°
2026-05-06 20:54 57.10522 -2.15983 5406 ft 257 kts 175°
2026-05-06 20:54 57.08767 -2.15586 6381 ft 261 kts 175°
2026-05-06 20:54 57.06968 -2.15160 7304 ft 265 kts 175°
2026-05-06 20:55 57.05130 -2.14729 8251 ft 269 kts 176°
2026-05-06 20:55 57.03263 -2.14290 9162 ft 273 kts 176°
2026-05-06 20:55 57.01382 -2.13841 10045 ft 278 kts 177°
2026-05-06 20:55 56.99439 -2.13390 10766 ft 289 kts 178°
2026-05-06 20:56 56.97368 -2.12913 11183 ft 310 kts 178°
2026-05-06 20:56 56.95184 -2.12384 11882 ft 319 kts 177°
2026-05-06 20:56 56.92998 -2.11816 12687 ft 323 kts 176°
2026-05-06 20:56 56.90751 -2.11001 13509 ft 328 kts 173°
2026-05-06 20:57 56.88469 -2.10086 14311 ft 331 kts 174°
2026-05-06 20:57 56.86140 -2.09172 15087 ft 334 kts 174°
2026-05-06 20:57 56.83862 -2.08284 15816 ft 337 kts 175°
2026-05-06 20:57 56.81564 -2.07393 16525 ft 340 kts 175°
2026-05-06 20:58 56.79225 -2.06488 17218 ft 344 kts 175°
2026-05-06 20:58 56.76891 -2.05587 17883 ft 347 kts 176°
2026-05-06 20:58 56.74517 -2.04673 18536 ft 350 kts 176°
2026-05-06 20:58 56.72152 -2.03764 19161 ft 353 kts 176°
2026-05-06 20:59 56.69724 -2.02832 19778 ft 356 kts 176°
2026-05-06 20:59 56.67310 -2.01907 20370 ft 359 kts 176°
2026-05-06 20:59 56.64875 -2.00975 20945 ft 362 kts 176°
2026-05-06 20:59 56.62386 -2.00024 21515 ft 364 kts 177°
2026-05-06 21:00 56.59927 -1.99086 22060 ft 367 kts 177°
2026-05-06 21:00 56.57396 -1.98121 22601 ft 370 kts 177°
2026-05-06 21:00 56.54877 -1.97163 23120 ft 373 kts 177°
2026-05-06 21:00 56.52358 -1.96206 23623 ft 375 kts 178°
2026-05-06 21:01 56.49778 -1.95227 24123 ft 378 kts 178°
2026-05-06 21:01 56.47217 -1.94256 24603 ft 381 kts 178°
2026-05-06 21:01 56.44595 -1.93264 25078 ft 383 kts 178°
2026-05-06 21:01 56.41983 -1.92277 25535 ft 386 kts 178°
2026-05-06 21:02 56.39346 -1.91281 25982 ft 388 kts 178°
2026-05-06 21:02 56.36716 -1.90290 26417 ft 391 kts 178°
2026-05-06 21:02 56.34034 -1.89280 26848 ft 393 kts 178°
2026-05-06 21:02 56.31379 -1.88282 27259 ft 396 kts 178°
2026-05-06 21:03 56.28655 -1.87260 27669 ft 398 kts 179°
2026-05-06 21:03 56.25953 -1.86248 28062 ft 400 kts 179°
2026-05-06 21:03 56.23230 -1.85239 28449 ft 401 kts 180°
2026-05-06 21:03 56.20487 -1.84777 28831 ft 389 kts 191°
2026-05-06 21:04 56.17831 -1.85185 29191 ft 383 kts 196°
2026-05-06 21:04 56.15180 -1.85759 29558 ft 385 kts 196°
2026-05-06 21:04 56.12508 -1.86333 29920 ft 387 kts 196°
2026-05-06 21:04 56.09839 -1.86903 30270 ft 389 kts 197°
2026-05-06 21:05 56.07152 -1.87476 30611 ft 390 kts 197°
2026-05-06 21:05 56.04473 -1.88045 30940 ft 392 kts 197°
2026-05-06 21:05 56.01761 -1.88621 31264 ft 394 kts 197°
2026-05-06 21:05 55.99019 -1.89202 31580 ft 395 kts 197°
2026-05-06 21:06 55.96278 -1.89781 31899 ft 396 kts 197°
2026-05-06 21:06 55.93549 -1.90355 32331 ft 394 kts 197°
2026-05-06 21:06 55.90871 -1.90918 32747 ft 392 kts 197°
2026-05-06 21:06 55.88166 -1.91487 33155 ft 390 kts 197°
2026-05-06 21:07 55.85464 -1.92056 33546 ft 389 kts 197°
2026-05-06 21:07 55.82795 -1.92616 33930 ft 388 kts 198°
2026-05-06 21:07 55.80131 -1.93175 34298 ft 387 kts 198°
2026-05-06 21:07 55.77437 -1.93740 34634 ft 386 kts 198°
2026-05-06 21:08 55.74754 -1.94303 34953 ft 386 kts 198°
2026-05-06 21:08 55.72091 -1.94859 35272 ft 386 kts 198°
2026-05-06 21:08 55.69453 -1.95410 35581 ft 385 kts 198°
2026-05-06 21:08 55.66767 -1.95969 35887 ft 385 kts 198°
2026-05-06 21:09 55.64111 -1.96523 36085 ft 386 kts 198°
2026-05-06 21:09 55.58835 -1.97618 36126 ft 383 kts 198°
2026-05-06 21:10 55.53567 -1.98710 36128 ft 383 kts 198°
2026-05-06 21:10 55.48281 -1.99802 36128 ft 384 kts 198°
2026-05-06 21:11 55.42968 -2.00873 36129 ft 385 kts 197°
2026-05-06 21:11 55.37664 -2.01937 36128 ft 384 kts 198°
2026-05-06 21:12 55.32363 -2.03032 36128 ft 384 kts 198°
2026-05-06 21:12 55.27053 -2.04128 36127 ft 384 kts 198°
2026-05-06 21:13 55.21755 -2.05215 36126 ft 384 kts 198°
2026-05-06 21:13 55.16466 -2.06295 36124 ft 384 kts 198°
2026-05-06 21:14 55.11170 -2.07371 36123 ft 384 kts 198°
2026-05-06 21:14 55.05867 -2.08444 36122 ft 384 kts 198°
2026-05-06 21:15 55.00587 -2.09509 36128 ft 383 kts 198°
2026-05-06 21:15 54.95269 -2.10577 36155 ft 382 kts 199°
2026-05-06 21:16 54.90034 -2.11627 36178 ft 378 kts 199°
2026-05-06 21:16 54.84945 -2.12645 36178 ft 375 kts 199°
2026-05-06 21:17 54.79778 -2.13676 36166 ft 372 kts 199°
2026-05-06 21:17 54.74651 -2.14697 36128 ft 369 kts 200°
2026-05-06 21:18 54.69582 -2.15704 36095 ft 367 kts 200°
2026-05-06 21:18 54.64540 -2.16703 36078 ft 366 kts 200°
2026-05-06 21:19 54.59462 -2.17707 36077 ft 366 kts 200°
2026-05-06 21:19 54.54409 -2.18704 36078 ft 366 kts 200°
2026-05-06 21:20 54.49375 -2.19694 36086 ft 366 kts 200°
2026-05-06 21:20 54.44293 -2.20691 36099 ft 367 kts 200°
2026-05-06 21:21 54.39241 -2.21679 36113 ft 367 kts 200°
2026-05-06 21:21 54.34162 -2.22670 36116 ft 368 kts 200°
2026-05-06 21:22 54.29103 -2.23654 36118 ft 369 kts 200°
2026-05-06 21:22 54.23986 -2.24648 36118 ft 369 kts 200°
2026-05-06 21:23 54.18923 -2.25628 36120 ft 369 kts 200°
2026-05-06 21:23 54.13813 -2.26615 36123 ft 369 kts 200°
2026-05-06 21:24 54.08722 -2.27596 36122 ft 369 kts 200°
2026-05-06 21:24 54.03601 -2.28579 36121 ft 370 kts 199°
2026-05-06 21:25 53.98404 -2.29013 36117 ft 379 kts 194°
2026-05-06 21:25 53.93109 -2.29084 36116 ft 379 kts 194°
2026-05-06 21:26 53.87838 -2.29160 36115 ft 379 kts 194°
2026-05-06 21:26 53.82568 -2.29237 36115 ft 380 kts 194°
2026-05-06 21:27 53.77309 -2.29314 36119 ft 380 kts 194°
2026-05-06 21:27 53.72032 -2.29393 36120 ft 380 kts 194°
2026-05-06 21:28 53.66763 -2.29475 36118 ft 380 kts 194°
2026-05-06 21:28 53.61476 -2.29554 36114 ft 380 kts 194°
2026-05-06 21:29 53.56220 -2.29631 36109 ft 379 kts 194°
2026-05-06 21:29 53.50964 -2.29706 36104 ft 379 kts 194°
2026-05-06 21:30 53.45689 -2.29781 36101 ft 379 kts 194°
2026-05-06 21:30 53.40405 -2.29856 36100 ft 379 kts 194°
2026-05-06 21:31 53.35155 -2.29930 36099 ft 379 kts 194°
2026-05-06 21:31 53.29887 -2.30005 36100 ft 379 kts 194°
2026-05-06 21:32 53.24662 -2.30079 36102 ft 379 kts 194°
2026-05-06 21:32 53.16770 -2.30190 36103 ft 379 kts 194°
2026-05-06 21:33 53.11524 -2.30263 36103 ft 379 kts 194°
2026-05-06 21:33 53.06229 -2.30190 36071 ft 389 kts 189°
2026-05-06 21:34 53.03498 -2.29397 35856 ft 407 kts 180°
2026-05-06 21:34 53.00757 -2.27780 35605 ft 426 kts 170°
2026-05-06 21:34 52.98111 -2.25341 35360 ft 444 kts 163°
2026-05-06 21:34 52.95524 -2.22611 35105 ft 447 kts 162°
2026-05-06 21:35 52.92874 -2.19817 34853 ft 447 kts 162°
2026-05-06 21:35 52.90264 -2.17075 34611 ft 446 kts 163°
2026-05-06 21:35 52.87809 -2.14502 34388 ft 444 kts 163°
2026-05-06 21:35 52.85184 -2.11759 34112 ft 441 kts 163°
2026-05-06 21:36 52.82580 -2.09043 33823 ft 438 kts 163°
2026-05-06 21:36 52.80009 -2.06366 33533 ft 436 kts 163°
2026-05-06 21:36 52.77447 -2.03703 33242 ft 433 kts 163°
2026-05-06 21:36 52.74910 -2.01070 32950 ft 431 kts 163°
2026-05-06 21:37 52.72372 -1.98440 32657 ft 429 kts 163°
2026-05-06 21:37 52.69849 -1.95829 32364 ft 427 kts 162°
2026-05-06 21:37 52.67347 -1.93244 32072 ft 425 kts 162°
2026-05-06 21:37 52.64856 -1.90673 31779 ft 423 kts 162°
2026-05-06 21:38 52.62359 -1.88100 31483 ft 421 kts 162°
2026-05-06 21:38 52.59915 -1.85585 31189 ft 419 kts 162°
2026-05-06 21:38 52.57430 -1.83031 30890 ft 417 kts 162°
2026-05-06 21:38 52.54984 -1.80520 30593 ft 415 kts 162°
2026-05-06 21:39 52.52565 -1.78041 30298 ft 414 kts 162°
2026-05-06 21:39 52.50133 -1.75551 29999 ft 412 kts 162°
2026-05-06 21:39 52.47684 -1.73047 29698 ft 410 kts 162°
2026-05-06 21:39 52.45273 -1.70585 29400 ft 408 kts 162°
2026-05-06 21:40 52.42897 -1.68162 29105 ft 406 kts 162°
2026-05-06 21:40 52.40496 -1.65717 28805 ft 404 kts 162°
2026-05-06 21:40 52.38106 -1.63286 28504 ft 402 kts 161°
2026-05-06 21:40 52.35745 -1.60888 28206 ft 400 kts 161°
2026-05-06 21:41 52.33405 -1.58513 27909 ft 398 kts 161°
2026-05-06 21:41 52.31052 -1.56129 27609 ft 397 kts 161°
2026-05-06 21:41 52.28722 -1.53772 27311 ft 395 kts 161°
2026-05-06 21:41 52.26384 -1.51408 27011 ft 393 kts 161°
2026-05-06 21:42 52.24063 -1.49065 26711 ft 391 kts 161°
2026-05-06 21:42 52.21798 -1.46687 26417 ft 395 kts 156°
2026-05-06 21:42 52.19626 -1.43813 26125 ft 402 kts 151°
2026-05-06 21:42 52.17524 -1.40858 25834 ft 398 kts 151°
2026-05-06 21:43 52.15435 -1.37937 25541 ft 393 kts 151°
2026-05-06 21:43 52.13342 -1.35015 25246 ft 388 kts 151°
2026-05-06 21:43 52.11314 -1.32189 24950 ft 383 kts 152°
2026-05-06 21:43 52.09290 -1.29376 24658 ft 380 kts 152°
2026-05-06 21:44 52.07280 -1.26586 24409 ft 379 kts 152°
2026-05-06 21:44 52.05275 -1.23807 24163 ft 379 kts 152°
2026-05-06 21:44 52.03288 -1.21054 23695 ft 375 kts 151°
2026-05-06 21:44 52.01307 -1.18305 22917 ft 372 kts 151°
2026-05-06 21:45 51.99361 -1.15614 22116 ft 369 kts 151°
2026-05-06 21:45 51.97416 -1.12927 21288 ft 367 kts 150°
2026-05-06 21:45 51.95457 -1.10225 20459 ft 364 kts 150°
2026-05-06 21:45 51.93545 -1.07589 19738 ft 358 kts 149°
2026-05-06 21:46 51.91707 -1.05048 19366 ft 342 kts 149°
2026-05-06 21:46 51.89928 -1.02591 19083 ft 325 kts 150°
2026-05-06 21:46 51.88245 -1.00270 18771 ft 312 kts 150°
2026-05-06 21:46 51.86608 -0.98023 18313 ft 306 kts 150°
2026-05-06 21:47 51.85121 -0.95566 17810 ft 317 kts 129°
2026-05-06 21:47 51.84079 -0.92377 17287 ft 321 kts 123°
2026-05-06 21:47 51.83099 -0.89128 16677 ft 321 kts 122°
2026-05-06 21:47 51.82113 -0.85870 16016 ft 322 kts 122°
2026-05-06 21:48 51.81135 -0.82650 15492 ft 318 kts 122°
2026-05-06 21:48 51.80175 -0.79503 15049 ft 311 kts 122°
2026-05-06 21:48 51.79222 -0.76385 14614 ft 304 kts 122°
2026-05-06 21:48 51.78287 -0.73339 14181 ft 298 kts 122°
2026-05-06 21:49 51.77373 -0.70366 13751 ft 293 kts 121°
2026-05-06 21:49 51.76477 -0.67457 13291 ft 290 kts 121°
2026-05-06 21:49 51.75576 -0.64541 12746 ft 289 kts 121°
2026-05-06 21:49 51.74681 -0.61643 12295 ft 285 kts 121°
2026-05-06 21:50 51.73806 -0.58812 11861 ft 281 kts 120°
2026-05-06 21:50 51.72828 -0.56182 11448 ft 269 kts 140°
2026-05-06 21:50 51.71293 -0.54744 11067 ft 246 kts 177°
2026-05-06 21:50 51.69661 -0.54604 10792 ft 232 kts 186°
2026-05-06 21:51 51.68077 -0.54564 10533 ft 219 kts 185°
2026-05-06 21:51 51.66605 -0.54510 10171 ft 209 kts 186°
2026-05-06 21:51 51.65160 -0.54459 9616 ft 210 kts 185°
2026-05-06 21:51 51.63727 -0.54519 9002 ft 208 kts 199°
2026-05-06 21:52 51.62550 -0.55646 8374 ft 195 kts 236°
2026-05-06 21:52 51.61797 -0.57416 7778 ft 195 kts 241°
2026-05-06 21:52 51.61026 -0.59216 7159 ft 199 kts 240°
2026-05-06 21:52 51.60274 -0.61077 6551 ft 198 kts 250°
2026-05-06 21:53 51.60041 -0.63184 5987 ft 191 kts 271°
2026-05-06 21:53 51.59937 -0.65320 5424 ft 193 kts 267°
2026-05-06 21:53 51.59427 -0.67311 4855 ft 203 kts 233°
2026-05-06 21:53 51.58237 -0.68474 4441 ft 203 kts 193°
2026-05-06 21:54 51.56842 -0.68565 4094 ft 198 kts 178°
2026-05-06 21:54 51.55467 -0.68543 3736 ft 201 kts 181°
2026-05-06 21:54 51.54071 -0.68606 3379 ft 202 kts 182°
2026-05-06 21:54 51.52658 -0.68725 2979 ft 203 kts 183°
2026-05-06 21:55 51.51266 -0.68807 2630 ft 199 kts 179°
2026-05-06 21:55 51.49919 -0.68774 2497 ft 188 kts 178°
2026-05-06 21:55 51.48663 -0.68599 2491 ft 179 kts 158°
2026-05-06 21:55 51.47742 -0.67376 2464 ft 173 kts 111°
2026-05-06 21:56 51.47658 -0.65550 2206 ft 164 kts 74°
2026-05-06 21:56 51.47766 -0.63723 1919 ft 164 kts 89°
2026-05-06 21:56 51.47728 -0.61928 1720 ft 159 kts 87°
2026-05-06 21:56 51.47729 -0.60133 1526 ft 161 kts 86°
2026-05-06 21:57 51.47729 -0.58350 1325 ft 152 kts 86°
2026-05-06 21:57 51.47729 -0.56746 1115 ft 136 kts 87°
2026-05-06 21:57 51.47717 -0.55319 937 ft 125 kts 88°
2026-05-06 21:57 51.47723 -0.53909 794 ft 128 kts 84°
2026-05-06 21:58 51.47739 -0.52483 616 ft 126 kts 88°
2026-05-06 21:58 51.47737 -0.51070 471 ft 125 kts 87°
2026-05-06 21:58 51.47744 -0.49650 273 ft 129 kts 86°
2026-05-06 21:58 51.47750 -0.48238 111 ft 126 kts 87°
2026-05-06 21:59 51.47754 -0.46960 84 ft 91 kts 88°
2026-05-06 21:59 51.47758 -0.46319 83 ft 24 kts 89°
2026-05-06 21:59 51.47690 -0.46126 81 ft 19 kts 148°
2026-05-06 21:59 51.47602 -0.46061 83 ft 7 kts 187°
2026-05-06 22:00 51.47591 -0.46099 83 ft 7 kts 269°
2026-05-06 22:00 51.47594 -0.46225 81 ft 12 kts 271°
2026-05-06 22:00 51.47592 -0.46361 81 ft 13 kts 268°
2026-05-06 22:00 51.47590 -0.46522 81 ft 15 kts 268°
2026-05-06 22:01 51.47592 -0.46703 80 ft 18 kts 272°
2026-05-06 22:01 51.47587 -0.46857 82 ft 12 kts 259°
2026-05-06 22:01 51.47582 -0.46997 83 ft 15 kts 270°
2026-05-06 22:01 51.47581 -0.47201 85 ft 19 kts 269°
2026-05-06 22:02 51.47580 -0.47407 85 ft 18 kts 269°
2026-05-06 22:02 51.47579 -0.47600 84 ft 16 kts 269°
2026-05-06 22:02 51.47578 -0.47781 83 ft 15 kts 268°
2026-05-06 22:02 51.47578 -0.47947 81 ft 14 kts 269°
2026-05-06 22:03 51.47577 -0.48095 81 ft 12 kts 269°
2026-05-06 22:03 51.47577 -0.48231 80 ft 12 kts 270°
2026-05-06 22:03 51.47577 -0.48358 80 ft 10 kts 269°
2026-05-06 22:03 51.47570 -0.48449 80 ft 5 kts 237°
2026-05-06 22:04 51.47526 -0.48476 81 ft 8 kts 189°
2026-05-06 22:04 51.47491 -0.48544 81 ft 9 kts 255°
2026-05-06 22:04 51.47488 -0.48662 81 ft 12 kts 268°
2026-05-06 22:04 51.47486 -0.48795 81 ft 9 kts 259°
2026-05-06 22:05 51.47454 -0.48830 81 ft 6 kts 181°
2026-05-06 22:05 51.47408 -0.48830 80 ft 3 kts 179°
2026-05-06 22:05 51.47401 -0.48830 80 ft 1 kts 180°
2026-05-06 22:05 51.47400 -0.48830 80 ft 0 kts 179°